CZ-2C R/B - Orbit

View from above orbital plane
View from above orbital plane
View from above satellite
View from above satellite

Ground track
Ground track

The orbit data is extracted from the following two-line orbital elements,

1 36089U 09061B   13144.18214873  .00000240  00000-0  72678-4 0   529
2 36089 098.1529 186.1516 0081694 293.2836 097.1132 14.48902766186613
Epoch (UTC): 24 May 2013 04:22:17
Eccentricity: 0.0081694
inclination: 98.1529°
perigee height: 671 km
apogee height: 787 km
right ascension of ascending node: 186.1516°
argument of perigee: 293.2836°
revolutions per day: 14.48902766
mean anomaly at epoch: 97.1132°
orbit number at epoch: 18661

The dashed part of the orbit path shows where the satellite is in the earth's shadow,  

Developed and maintained by Chris Peat, Heavens-Above GmbH. Please read the updated FAQ before sending e-mail. Imprint. DLR